BALQSSONG
?

단축키

Prev이전 문서

Next다음 문서

+ - Up Down Comment
?

단축키

Prev이전 문서

Next다음 문서

+ - Up Down Comment

130808 MBLAQ & REIK - Press Conference @ El Universal TV

.

 

인터넷 기사 보려면 클릭

  • 승수니 2013.08.09 10:16
    승호..위주로..편집을 한 것 같은...이 느낌은 뭐지?^^ 아~ 많이 나온다 우리 승호~~^^
  • 승수니 2013.08.09 14:11
    편집한 사람이 승호가 맘에 들었나? ㅋㅋ
  • 승수니 2013.08.11 09:23

    위에 뉴스 영어 번역본이야.

     

    “Two groups, the first a trio of bohemian musicians.

    The second, 5 young men emerging from a global phenomenon, KPop

     

     

    That’s right, Reik and the Korean group MBLAQ met up to exchange their culture and experiences.

    El Universal (The Universal) exclusively witnessed this meet up between the two music groups.

    The Mexican group, creator of the great hit “Que Vida La Mia” (“What Life of Mine”),

    were in charge of welcoming the Oriental quintet to show them the cultural beauty of Mexico.

    In October, they (Reik) will travel to South Korea to be well requited.

     

    Jesus: “The truth is that this is an experiment. This is the first time something like this is being done.

    The first time this is being attempted. We are very proud and honored to represent Mexico and

    be able to take our music there (to South Korea).

    There are a lot of good things to Mexican Pop. There are a lot of good things in it.”

     

    Even though this is the first time the Oriental group visits Mexico,

    the members assured us they already knew a few things about the Mexican culture.

    During their visit to Mexico, MBLAQ, with Reik as their tour guide,

    toured a few touristic points throughout the city.

     

    Seungho: “We went to Reforma, Reik gave us a tour from Reforma to Zocalo.”

     

    Even though MBLAQ sings in Korean,

    they say the language is not a barrier for them – Music is universal.

     

    On his part, Hong Sang Pyo, president of KOCCA, the company in charge of this exchange,

    explained why KPop has success throughout the world.

     

    Hang Sang Pyo: “During the last decade,

    KPop has been driven through a system that looks to create the perfect idols of quality through a private sector.

    From it’s planning stages it must be a factor of success.

    To show a performance of high perfection with the objective to advance on the global market.”

     

    With an almost sold out venue,

    the Korean group with hold their concert this 8th of August in the Pepsi Center in Mexico City,

    just another proof of the power KPop has in our country.

     

    With information from Janice Meridan, El Universal Television.”

     

     

    Transcription translation by: @evieblue21

?

DATA01

출처는 정확히 해주시고, 펌금지 된 자료는 허락을 받은 후 게시해주세요. 직찍과 직캠의 2차가공 게시물을 금지합니다.

List of Articles
번호 분류 제목 날짜 추천 수
공지 기타 승호 관련 사이트 목록 ver. 1.9 (14. 10. 09 갱신) 37 2011.09.08 0
공지 기타 BLAQSSONG MAIN IMAGE COLLECTION 17 2012.03.28 3
750 영상 130707 승호 직캠 II @ 강남 팬사인회 2 2013.07.10 1
749 영상 130710 [KBS World] 'K-Pop Backstage Chat' Ep.12 with MBLAQ 1 2013.07.10 1
748 영상 130710 MBLAQ 스페셜 인터뷰 Vol.2 @ K-fan.me 1 2013.07.11 1
747 영상 130710 슈키라 보라 영상들 7 2013.07.11 2
746 영상 130710 승호 직캠 - 청소 라이브 @ 슈키라 2013.07.11 1
745 영상 130626 승호 직캠 - 리허설 @ 소풍 2 2013.07.11 1
744 영상 칭찬받는 귀여운 씹덕 승호 ㅠㅠ 5 2013.07.11 1
743 영상 130626 승호 직캠 @ 소리풍경 : 귀여운 남자 양쏭♥ 3 2013.07.12 3
742 영상 130707 강남팬싸-나는야 정의의 양식신 7 2013.07.12 3
741 영상 [예고] 뮤뱅 in ISTANBUL(2013.9.7) 1 2013.07.12 1
740 영상 130710 승호 직캠 - 출근길 @ 슈키라 4 2013.07.13 1
739 영상 110809 승호 청소 라이브 @MUST (+ 직캠 추가) 5 2013.07.13 1
738 영상 130714 블라인드 테스트 180도 엠블랙cut 5 2013.07.14 1
737 영상 130714 도전천곡 승호 & 천둥cut 5 2013.07.14 1
736 영상 130715 비틀즈코드 - 미공개 영상 2 2013.07.15 1
735 영상 130716 올더케이팝 예고 4 2013.07.16 1
734 영상 130716 올더케이팝 6 2013.07.16 1
733 영상 130717 MBLAQ 스페셜 인터뷰 Vol.3 @ K-fan.me 7 2013.07.17 1
732 영상 130715 승호 - 음식을 사랑하는 아이돌 @ Pops in Seoul 1 2013.07.18 1
731 영상 승호 손목 영상 + 설렘 영상들 13 2013.07.18 2
730 영상 130718 독일 K-Pop 차트 1위 스모키걸!! 6 2013.07.19 1
729 영상 나쁜 남자 양승호.swf 5 2013.07.20 1
728 영상 130720 희망콘트 우리는 (창원) 1 2013.07.20 1
727 영상 130719 승호 직캠 - 전쟁이야 @ 블루원 케이팝 드림페스티벌 2 2013.07.20 1
726 영상 130720 승호 직캠 - ENDING/비트박스 @ 마산 팬사인회 2 2013.07.21 1
725 영상 130721 에너지절약송 @ 인기가요 2 2013.07.21 1
724 영상 130720 승호 직캠 - ENDING @ 평촌 팬사인회 3 2013.07.22 1
723 영상 130719 승호 직캠 - Celebrate @ 블루원 케이팝 드림페스티벌 2 2013.07.22 1
722 영상 130721 승호 직캠 - "전쟁이야" 피아노 연주 @ 대전 팬사인회 5 2013.07.23 1
721 영상 『2013 MBLAQ SENSATION ZEPP TOUR』 1 2013.07.23 1
720 영상 130710 승호 직캠 @ 슈키라 2 2013.07.23 2
719 영상 130719 승호 직캠 - 토크 @ 블루원 케이팝 드림페스티벌 2 2013.07.23 1
718 영상 130723 올더케이팝 6 2013.07.23 1
717 영상 < 더 드라마틱 : 엠블랙 > 티저영상 1 2013.07.24 2
716 영상 130721 승호 직캠 - "엘리제를 위하여"+"전쟁이야" 피아노 연주 @ 대전 팬사인회 2 2013.07.25 1
715 영상 130721 승호 직캠 @ 평촌 팬사인회 2 2013.07.25 1
714 영상 130724 울산 썸머페스티벌 직캠 ( 스모키걸+전쟁이야+모나리자+멘트) 4 2013.07.25 2
713 영상 130720 엠블랙 컷 @ JJANG! (Mnet Japan) 3 2013.07.25 2
712 영상 130725 코야 썸머페스티벌 엠블랙 (스모키걸+전쟁이야+모나리자) 3 2013.07.26 2
711 영상 더 드라마틱 1회 엠블랙편 예고영상 5 2013.07.26 2
710 영상 130720 승호 직캠 @ 마산 팬사인회 1 2013.07.27 1
709 영상 130721 승호 직캠 @ 청주 팬사인회 2 2013.07.27 1
708 영상 130626 승호 직캠 @ 피크닉 2 2013.07.27 2
707 영상 130721 MBLAQ 대전 사인회 승호 Dance + 피아노 4 2013.07.28 1
706 영상 130721 승호 직캠 @ 평촌 팬싸인회 1 2013.07.28 2
705 영상 130727 승호 직캠 @ 봉화은어축제 6 2013.07.28 2
704 영상 더 드라마틱 새로운 예고편 영상_ 8월 2일(금) 밤10시 방영 6 2013.07.29 1
703 영상 100607 승호가 멤버들하고 노는 법 @ 아이돌캠 II 4 2013.07.30 1
702 영상 팬싸인회 모음 영상 4 2013.07.30 1
701 영상 씹덕=양승호 3 2013.07.31 1
700 영상 130727 MBLAQ - 스모키걸/토크/전쟁이야 @ 울산썸머페스티벌 2 2013.07.31 1
699 영상 엠블랙 컷 @ JJANG! 1 2013.08.01 1
698 영상 130721 "소녀" 따라 부르는 승호 @ 평촌 팬사인회 4 2013.08.01 2
697 영상 130727 승호 - 비트박스 @ 봉화은어축제 4 2013.08.02 2
696 영상 130802 더드라마틱 엠블랙 촬영 뒷이야기.avi 3 2013.08.03 1
695 영상 130802 더드라마틱 1회 4 2013.08.03 1
694 영상 130802 더드라마틱 승호 영상 모음 1 2013.08.03 0
693 영상 [직캠] 대전팬싸에서 소주회오리 만드는 승호 4 2013.08.04 2
692 영상 130806 엠블랙 멕시코 공항 입국 영상 17 2013.08.06 2
691 영상 ¡MBLAQ 8 de agosto! (엠블랙 8월8일) - 멕시코 공연 프로모 영상 6 2013.08.07 2
690 영상 130807 승호 @ 주간아이돌 2 2013.08.08 0
689 영상 130807 MBLAQ과 REIK 기자회견 영상 - Part 1 2 2013.08.08 2
688 영상 130808 엠블랙과 REIK @ 1:N (TELEVISA 뉴스) 5 2013.08.08 1
687 영상 130807 MBLAQ과 REIK 기자회견 영상 - Part 2 1 2013.08.09 0
» 영상 [영상] 130808 El Universal TV 기자회견 보도 영상 3 2013.08.09 1
685 영상 130808 멕시코공연 직캠 모음 6 2013.08.09 1
684 영상 130809 멕시코 공연 @ 1:N (TELEVISA 뉴스) 2 2013.08.09 1
683 영상 130809 멕시코 공연 @ "HOY" (멕시코방송) 2 2013.08.10 1
682 영상 130808 멕시코공연 직캠 모음2 7 2013.08.10 2
681 영상 [플짤] 130801 해운대 꽈당 미르 보고 웃는 승호 5 2013.08.10 1
680 영상 130810 엠블랙- 멕시코에서의 마지막 순간 3 2013.08.10 2
679 영상 130810 스모키걸/토크/모나리자 @ 부산바다축제 2013.08.11 0
678 영상 130810 멕시코 공항 출국하러 온 엠블랙 4 2013.08.11 1
677 영상 130811 인천공항 입국 기사사진 4 2013.08.11 1
676 영상 130811 빵터진 승호 @ 인천공항 3 2013.08.12 0
675 영상 130805 MBLAQ 'SEXY BEAT' showcase @ Pop pop seoul (일본방송) 3 2013.08.12 1
674 영상 No Love 뮤직비디오 3 2013.08.12 2
673 영상 No Love 자켓 사진 촬영 메이킹과 기도 녹음 현장 6 2013.08.12 2
672 영상 130811 엠블랙 멕시코공연 @ Soundline 2 2013.08.12 1
671 영상 130808 엠블랙과 REIK @ 1:N (TELEVISA 뉴스, 고화질) 2 2013.08.13 1
670 영상 130808 멕시코 공연 승호 개인무대 직캠 3 2013.08.14 2
669 영상 에콰도르 TV에 나온 LOVE BEAT 앨범소개 2 2013.08.14 0
668 영상 MBLAQ EN MÉXICO 4 2013.08.14 1
667 영상 엠블랙 콘서트 @ 멕시코 TV 2 2013.08.15 1
666 영상 130816 승호 피아노 (오디오) - 일본 나고야 ZEPP Tour 3 2013.08.18 1
665 영상 130817 엠블랙 @ 멕시코 프로레슬링 중계방송 2 2013.08.18 1
664 영상 130710 슈키라 승호 출근길 + 청소 라이브 1 2013.08.18 0
663 영상 130815 승호 직캠 - 미쳐볼래 @ Zepp Tour in Nagoya 4 2013.08.22 1
662 영상 승호 & 미르 화수분 예고 7 2013.08.23 1
661 영상 130824 승호 직캠 @ 여의도 팬사인회 3 2013.08.25 1
660 영상 130824 승호 직캠 @ 신촌 팬사인회 11 2013.08.25 1
659 영상 [직캠] 130808 멕시코 콘서트 리허설 _ Sexy Beat (+영상추가) 3 2013.08.25 1
658 영상 130826 뮤직뱅크 터키 이스탄불 공연 인사말 2013.08.27 1
657 영상 130824 승호 직캠 @ 신촌 팬사인회 2 2013.08.27 1
656 영상 130824 승호 - 더워서 못 살겠어요 @ 신촌 팬사인회 3 2013.08.29 1
655 영상 2013 KOINMO 홍보대사_엠블랙(MBLAQ) 3 2013.08.29 1
654 영상 130829 승호 & 미르 @ 화수분 4 2013.08.30 1
653 영상 에콰도르 TV 전국음악채널에 소개된 'NO LOVE' 그리고 멕시코 공연 홍보효과 1 2013.08.30 0
652 영상 130824 승호 직캠 @ 신촌 팬사인회 2 2013.08.31 2
651 영상 130831 KOREA IN MOTION FESTIVAL 개막식 직캠 7 2013.09.01 1
목록
Board Pagination ‹ Prev 1 ... 7 8 9 10 11 ... 16 Next ›
/ 16

나눔글꼴 설치 안내


이 PC에는 나눔글꼴이 설치되어 있지 않습니다.

이 사이트를 나눔글꼴로 보기 위해서는
나눔글꼴을 설치해야 합니다.

설치 취소

Designed by sketchbooks.co.kr / sketchbook5 board skin

Sketchbook5, 스케치북5

Sketchbook5, 스케치북5

Sketchbook5, 스케치북5

Sketchbook5, 스케치북5